Location: S�tio Afonso Gruber
(26.1760°S, 49.5250°W)
Time: 00:17:37
(UTC+00:00)

Intelsat 5-3 Rocket - Pass Details

Date: 01 October 2020
Orbit: 281 x 6111 km, 23.6° (Epoch: 22 October)

Event Time Altitude Azimuth Distance (km) Brightness Sun altitude
Exits shadow 06:53:00 30° 268° (W) 6,493 7.1 -28.1°
Maximum altitude 07:16:41 70° 339° (NNW) 6,232 7.3 -23.0°
Drops below altitude 10° 07:55:10 10° 57° (ENE) 8,106 8.9 -14.6°
Sets 08:00:28 0° 59° (ENE) 8,551 9.2 -13.5°
